Dewpoint
56 52 54 58 59 60 60 61 62 62 62 63 64 65 66 67 68 69 69 70 70 71 72 72 72 72 72 72 72 72 72 72 72 72 73 72 72 72 72 72 72 73 73 73 73 74 75 76 76 75 76 76 76 75 75 77 77 78 77 78 77 77 76
59 53 53 56 59 60 60 61 62 62 63 63 64 65 66 67 68 68 69 70 70 70 72 72 72 72 72 72 73 73 72 72 74 74 73 73 74 73 73 73 73 73 73 74 74 74 75 74 76 75 75 76 76 76 76 77 77 77 77 77 76 75 77
60 56 53 55 58 60 60 61 62 62 63 63 64 65 65 67 68 68 69 69 70 70 72 72 72 72 72 72 73 73 72 72 74 74 73 72 73 73 74 73 73 73 73 74 74 74 75 74 75 75 75 75 75 76 76 77 77 76 76 76 76 76 75
61 58 54 54 57 60 60 61 62 62 63 63 64 64 65 67 68 68 69 69 69 70 71 72 72 72 72 72 72 73 73 73 73 73 73 73 73 74 74 74 74 74 74 74 74 74 73 74 74 75 77 75 75 75 76 76 76 76 76 76 76 75 75
60 60 56 55 56 59 60 61 62 62 63 63 64 65 65 66 68 68 69 69 69 69 70 71 72 72 73 73 72 73 73 72 73 74 74 74 74 75 75 74 74 74 74 74 75 75 75 74 74 74 75 76 75 75 76 76 76 76 76 76 75 75 75
60 61 59 56 55 57 59 60 61 62 63 63 64 64 65 66 67 68 69 69 69 70 70 71 72 73 73 73 73 73 73 73 73 74 74 74 74 74 74 74 74 74 74 74 75 75 74 74 74 74 74 74 75 75 75 75 75 76 76 76 76 75 75
60 60 60 58 56 56 58 60 61 62 63 63 64 65 65 66 66 67 68 69 70 70 70 70 71 72 73 73 73 73 73 73 73 73 74 73 73 74 74 74 75 73 74 75 74 74 74 74 74 74 74 74 75 75 75 76 76 76 76 76 75 75 75
60 60 61 59 56 56 57 59 61 62 63 63 64 64 65 66 67 67 68 68 69 69 70 70 71 72 73 73 73 73 73 73 73 73 74 73 73 73 73 73 74 74 74 73 74 74 73 74 73 74 74 73 74 75 75 76 76 75 75 75 75 75 74
60 60 61 61 58 57 57 58 60 61 63 63 64 64 65 66 67 67 68 69 69 70 70 71 71 72 73 73 73 73 73 73 73 73 73 73 73 72 72 72 73 74 73 73 73 73 73 73 73 74 74 74 74 74 74 75 75 75 75 75 75 75 74
63 62 62 63 61 60 59 59 60 62 63 63 64 64 65 67 68 68 69 69 70 70 70 71 71 72 72 73 73 73 73 73 73 73 73 73 73 72 72 72 72 73 72 72 72 72 73 73 72 73 74 74 74 74 74 74 74 74 75 75 75 75 75
64 64 64 64 63 63 63 62 62 63 63 63 64 64 66 67 68 68 69 70 69 70 71 71 72 72 72 72 73 73 73 73 73 73 73 73 73 72 72 72 72 72 72 72 71 72 72 73 73 73 73 72 73 74 74 74 74 74 74 74 75 75 74
65 64 64 64 64 64 63 63 63 64 64 65 65 66 67 68 68 69 69 70 70 70 71 72 72 72 72 72 72 73 73 73 72 73 73 73 73 73 72 72 71 71 71 72 71 72 71 72 72 72 72 72 73 73 73 74 74 74 74 73 74 74 74
65 65 65 65 65 64 64 64 63 64 65 65 66 67 67 68 69 69 70 70 71 71 72 72 72 72 72 72 72 72 72 72 72 72 73 73 73 73 73 72 71 70 70 71 71 71 70 70 72 73 72 72 72 71 72 73 72 73 74 74 74 74 74
66 65 65 65 65 65 64 64 65 66 66 66 67 67 68 68 69 69 69 70 70 71 72 72 72 72 72 72 71 71 72 72 72 73 73 73 73 73 73 72 71 71 71 71 70 70 69 69 69 70 72 72 72 72 72 72 72 73 73 73 73 73 74
64 65 65 65 65 65 65 65 65 66 67 67 67 67 68 68 69 70 70 70 71 71 71 72 72 72 72 72 71 71 72 72 72 72 72 73 73 72 72 72 71 71 71 71 70 69 69 69 69 69 70 71 71 72 72 71 72 72 73 73 73 73 73
64 65 65 65 65 65 65 66 66 67 67 67 67 68 68 68 69 69 70 70 71 71 72 72 72 71 71 71 72 72 72 71 72 72 72 72 72 72 72 71 71 71 70 70 70 70 70 70 69 68 68 69 70 71 71 71 72 73 74 74 73 73 73
64 65 65 65 65 65 66 66 67 67 67 67 67 68 68 68 69 69 70 70 71 71 71 72 71 71 71 71 71 71 71 71 71 71 71 71 71 72 72 72 71 71 71 72 72 73 73 72 70 69 68 68 68 69 69 70 70 71 69 70 73 74 74
65 65 66 66 66 66 66 66 66 67 67 67 68 68 68 68 69 69 69 70 70 71 71 71 70 70 70 70 70 70 70 71 70 70 70 71 71 71 72 72 72 71 71 72 72 73 73 71 70 71 70 69 68 68 69 70 66 65 65 67 67 71 74
65 66 66 66 66 66 66 66 67 67 67 67 67 68 68 69 69 68 69 69 70 70 69 70 70 69 68 69 70 70 70 70 70 70 70 71 71 71 72 73 73 72 72 72 73 73 72 71 70 71 71 71 71 70 70 67 63 62 63 64 64 65 71
64 64 65 65 66 65 65 66 66 67 67 67 68 68 68 69 69 69 69 69 69 69 68 68 68 68 68 69 69 69 69 69 70 70 70 70 71 71 71 72 72 72 71 70 68 69 69 70 70 71 71 70 70 69 68 66 61 60 61 61 62 64 67
63 62 62 62 63 63 64 64 65 65 66 67 68 68 68 68 68 68 68 68 68 68 68 68 68 68 68 69 69 69 69 69 70 70 70 70 70 71 70 70 70 69 69 69 69 69 69 69 70 71 71 70 69 69 65 62 59 59 59 59 60 62 68
62 62 61 62 62 63 63 63 64 64 64 67 68 68 68 68 68 68 68 68 67 67 67 67 67 67 67 67 68 68 68 69 69 69 69 69 69 69 68 67 68 68 69 69 69 70 70 70 70 70 70 70 69 69 67 63 58 58 58 59 59 64 67
62 62 62 62 62 62 63 63 63 63 64 64 64 65 65 66 67 66 66 66 66 66 65 65 65 65 66 66 67 67 67 67 67 68 68 68 68 68 68 68 68 68 69 68 68 69 69 70 70 70 70 70 70 69 67 63 58 56 56 57 59 65 66
62 62 62 62 62 62 63 63 64 64 63 63 63 64 64 65 64 64 64 64 64 64 64 64 64 64 65 65 65 66 67 67 67 67 67 67 67 67 67 68 68 68 69 67 67 68 69 69 70 71 70 71 69 68 65 63 59 54 54 55 57 64 67
61 61 61 61 60 60 61 62 62 62 62 62 61 62 64 64 63 63 62 63 63 63 63 63 63 63 64 64 64 65 65 66 66 67 67 67 67 68 68 68 68 68 68 68 68 67 68 70 70 68 66 67 67 67 63 62 60 54 53 54 55 62 66
60 60 60 61 61 61 61 61 60 60 60 60 60 61 61 62 62 62 61 61 62 61 61 61 62 63 63 63 63 64 65 66 66 66 67 67 67 67 67 67 67 67 67 67 67 67 66 65 64 63 63 63 63 62 61 60 59 57 52 52 54 57 65
60 60 59 59 59 60 59 59 58 57 58 58 59 59 61 61 60 60 60 60 59 59 60 60 61 60 60 60 61 62 63 64 64 65 65 66 65 65 66 66 67 66 66 66 66 65 64 63 63 62 63 64 63 63 62 60 58 58 52 51 51 54 60
59 59 59 60 58 56 55 55 55 55 55 56 56 56 56 57 58 58 58 57 57 58 60 60 60 58 57 57 56 57 58 60 62 63 63 64 63 63 64 65 66 66 66 65 64 63 63 63 63 63 63 63 63 62 62 61 58 59 55 51 50 50 53
56 57 57 57 56 57 55 55 55 56 56 56 56 56 55 54 55 56 56 56 58 59 60 60 59 58 57 56 56 57 56 57 58 59 61 62 63 63 63 64 65 65 65 63 62 61 61 61 61 61 61 60 60 60 60 60 61 59 59 55 50 50 51
54 54 54 54 55 56 57 57 56 56 56 56 57 57 57 57 57 58 58 57 58 59 60 60 58 57 56 57 56 56 58 58 58 59 59 60 61 62 61 63 64 65 65 63 62 60 60 60 61 61 60 59 59 58 59 59 59 58 57 58 54 51 50
53 54 55 56 56 57 56 55 55 55 56 56 56 57 57 57 57 57 57 58 60 60 59 59 58 56 56 57 57 57 57 57 57 58 58 58 59 60 61 61 62 62 62 63 61 61 60 60 60 60 60 60 57 56 57 57 59 58 57 55 55 53 51
54 55 55 56 56 57 56 55 55 55 55 55 55 56 58 56 56 57 58 59 60 59 60 58 57 56 55 56 56 56 55 53 53 53 53 54 54 56 57 58 61 61 61 62 62 62 61 61 60 59 60 59 59 58 58 58 57 56 55 55 54 53 52
53 54 55 55 57 57 55 55 55 55 55 55 55 56 57 57 57 57 58 58 58 59 60 58 57 58 56 57 57 56 55 54 53 53 54 52 51 51 53 55 55 57 58 58 59 62 64 62 61 61 62 60 59 59 59 57 56 55 54 53 52 51 51
53 54 54 55 56 56 55 55 54 55 55 55 55 56 56 56 55 56 56 57 58 59 61 61 59 55 55 57 59 60 60 60 60 55 52 52 50 49 49 51 52 52 54 53 53 57 60 61 63 62 61 60 59 59 59 59 57 54 51 51 50 49 48
53 53 53 54 55 55 54 55 55 55 55 55 55 55 55 55 55 55 56 57 58 58 59 60 60 58 54 55 55 57 58 54 54 53 52 51 51 51 51 51 52 53 53 53 52 53 54 58 59 59 58 59 58 58 58 58 56 55 50 52 46 49 48
53 53 54 55 55 55 56 56 55 55 55 54 55 55 55 55 55 55 55 56 56 56 57 58 58 55 56 55 54 53 53 54 52 53 53 51 50 50 51 51 46 49 51 51 51 46 43 47 55 55 55 54 54 56 58 57 56 48 43 41 41 41 42
53 53 54 55 54 54 55 56 56 55 55 56 57 56 55 55 54 54 55 55 56 55 55 56 56 55 55 58 58 58 57 54 51 52 51 50 51 52 52 49 50 42 43 50 49 43 39 39 40 44 48 56 53 52 49 48 44 41 40 40 40 40 40
54 54 55 55 55 55 55 55 55 55 55 56 56 55 54 54 54 54 55 55 55 55 56 56 55 54 55 55 57 62 60 55 57 56 53 52 53 54 54 51 52 51 46 41 44 43 40 39 38 39 41 42 47 54 51 49 43 39 38 38 39 39 38